Indian River Bay Dewey Beach DE USA current weather conditions

sailwx.info

Wind from 248 at 4 knots gusting 6

Air temperature 5.8° C
Dewpoint -3.3° C

Last reported at 2020-Feb-20 00:05 UTC.
Time now 2020-Feb-20 00:58 UTC

Location: N 38°38' W 075°04'.
View on Google Maps.

See reports from other nearby stations

  
Tides and Currents Weather Stations Pressure Air Temp Water Temp Dewpoint Dewpoint Depression Visibility Wind Speed Wind Dir Waves Ship Positions
date/time (UTC)wind fromknots sea level pressurealtimeterstation pressurevisibilityair tempwater tempwave heightnotes
2020-Feb-20 00:05 248 4 gusting 6 5.8
2020-Feb-20 00:00 250 4 gusting 7 5.8
2020-Feb-19 23:55 252 4 gusting 6 5.9
2020-Feb-19 23:50 253 4 gusting 6 6.0
2020-Feb-19 23:45 250 4 gusting 8 5.9
2020-Feb-19 23:40 247 4 gusting 6 5.9
2020-Feb-19 23:35 246 4 gusting 6 5.9
2020-Feb-19 23:30 251 4 gusting 5 6.0
2020-Feb-19 23:25 252 4 gusting 6 6.0
2020-Feb-19 23:20 249 4 gusting 6 6.0
2020-Feb-19 23:15 247 4 gusting 6 6.0
2020-Feb-19 23:10 246 3 gusting 5 6.2
2020-Feb-19 23:05 251 3 gusting 5 6.3
2020-Feb-19 23:00 253 4 gusting 7 6.5
2020-Feb-19 22:55 253 4 gusting 6 6.5
2020-Feb-19 22:50 252 4 gusting 5 6.7
2020-Feb-19 22:45 251 4 gusting 6 6.9
2020-Feb-19 22:40 247 4 gusting 7 7.1
2020-Feb-19 22:35 247 5 gusting 8 7.4
2020-Feb-19 22:30 250 6 gusting 11 7.4
2020-Feb-19 22:25 267 5 gusting 9 7.6
2020-Feb-19 22:20 265 7 gusting 9 7.7
2020-Feb-19 22:15 264 6 gusting 9 7.9
2020-Feb-19 22:10 255 5 gusting 9 8.1
2020-Feb-19 22:05 257 6 gusting 9 8.2
2020-Feb-19 22:00 253 5 gusting 8 8.4
2020-Feb-19 21:55 250 5 gusting 9 8.6
2020-Feb-19 21:50 255 5 gusting 8 8.7
2020-Feb-19 21:45 261 6 gusting 9 8.8
2020-Feb-19 21:40 261 6 gusting 8 8.6
2020-Feb-19 21:35 255 6 gusting 10 8.5
2020-Feb-19 21:30 259 5 gusting 9 8.4
2020-Feb-19 21:25 246 5 gusting 8 8.5
2020-Feb-19 21:20 261 6 gusting 10 8.7
2020-Feb-19 21:15 275 6 gusting 9 8.8
2020-Feb-19 21:10 277 5 gusting 9 8.8
2020-Feb-19 21:05 271 7 gusting 10 8.9
2020-Feb-19 21:00 276 7 gusting 10 8.9
2020-Feb-19 20:55 281 7 gusting 10 9.0
2020-Feb-19 20:50 273 8 gusting 11 9.0
2020-Feb-19 20:45 271 7 gusting 10 9.2
2020-Feb-19 20:40 275 6 gusting 10 9.2
2020-Feb-19 20:35 289 5 gusting 8 9.2
2020-Feb-19 20:30 293 6 gusting 8 9.0
2020-Feb-19 20:25 300 5 gusting 9 9.0
2020-Feb-19 20:20 296 5 gusting 10 9.2
2020-Feb-19 20:15 283 6 gusting 11 9.1
2020-Feb-19 20:10 284 7 gusting 11 9.0
2020-Feb-19 20:05 306 6 gusting 10 9.0
2020-Feb-19 20:00 298 6 gusting 10 9.1
2020-Feb-19 19:55 306 6 gusting 10 9.1
2020-Feb-19 19:50 296 5 gusting 9 9.1
2020-Feb-19 19:45 306 5 gusting 10 9.3
2020-Feb-19 19:40 296 4 gusting 7 9.3
2020-Feb-19 19:35 303 4 gusting 7 9.2
2020-Feb-19 19:30 295 4 gusting 8 8.9
2020-Feb-19 19:25 313 5 gusting 9 9.0
2020-Feb-19 19:20 312 5 gusting 9 9.0
2020-Feb-19 19:15 317 6 gusting 11 8.8
2020-Feb-19 19:10 320 6 gusting 11 8.8
2020-Feb-19 19:05 315 7 gusting 11 8.8
2020-Feb-19 19:00 316 8 gusting 14 8.9
2020-Feb-19 18:55 305 7 gusting 13 9.1
2020-Feb-19 18:50 293 8 gusting 12 9.2
2020-Feb-19 18:45 299 6 gusting 9 9.0
2020-Feb-19 18:40 314 6 gusting 10 9.0
2020-Feb-19 18:35 309 6 gusting 12 8.8
2020-Feb-19 18:30 318 8 gusting 12 8.7
2020-Feb-19 18:25 313 8 gusting 14 8.6
2020-Feb-19 18:20 308 8 gusting 14 8.9
2020-Feb-19 18:15 301 8 gusting 12 9.0
2020-Feb-19 18:10 304 7 gusting 11 8.9
2020-Feb-19 18:05 315 6 gusting 11 8.9
2020-Feb-19 18:00 309 8 gusting 16 9.1
2020-Feb-19 17:55 298 8 gusting 13 9.2
2020-Feb-19 17:50 296 7 gusting 13 9.3
2020-Feb-19 17:45 303 6 gusting 9 9.0
2020-Feb-19 17:40 306 6 gusting 12 8.8
2020-Feb-19 17:35 309 7 gusting 12 8.6
2020-Feb-19 17:30 326 5 gusting 9 8.5
2020-Feb-19 17:25 307 5 gusting 10 8.7
2020-Feb-19 17:20 307 4 gusting 8 8.3
2020-Feb-19 17:15 315 4 gusting 8 7.9
2020-Feb-19 17:10 316 4 gusting 8 7.8
2020-Feb-19 17:05 322 5 gusting 9 7.7
2020-Feb-19 17:00 317 4 gusting 8 7.6
2020-Feb-19 16:55 321 6 gusting 10 7.4
2020-Feb-19 16:50 319 7 gusting 11 7.6
2020-Feb-19 16:45 318 7 gusting 11 7.6
2020-Feb-19 16:40 314 7 gusting 12 7.8
2020-Feb-19 16:35 322 7 gusting 11 7.7
2020-Feb-19 16:30 322 8 gusting 13 7.5
2020-Feb-19 16:25 320 10 gusting 16 7.6
2020-Feb-19 16:20 323 6 gusting 10 7.7
2020-Feb-19 16:15 323 8 gusting 13 7.7
2020-Feb-19 16:10 323 7 gusting 11 7.7
2020-Feb-19 16:05 325 7 gusting 10 7.4
2020-Feb-19 16:00 320 8 gusting 13 7.4
2020-Feb-19 15:55 320 7 gusting 13 7.3
2020-Feb-19 15:50 321 8 gusting 14 7.2
2020-Feb-19 15:45 319 8 gusting 13 7.2
2020-Feb-19 15:40 318 9 gusting 14 7.2
2020-Feb-19 15:35 322 8 gusting 12 7.1
2020-Feb-19 15:30 318 9 gusting 13 7.0
2020-Feb-19 15:25 319 7 gusting 13 7.0
2020-Feb-19 15:20 313 7 gusting 14 6.9
2020-Feb-19 15:15 319 8 gusting 13 6.9
2020-Feb-19 15:10 318 8 gusting 12 6.9
2020-Feb-19 15:05 320 7 gusting 11 6.9
2020-Feb-19 15:00 321 8 gusting 14 6.9
2020-Feb-19 14:55 318 9 gusting 13 7.0
2020-Feb-19 14:50 316 8 gusting 11 7.0
2020-Feb-19 14:45 319 8 gusting 13 6.9
2020-Feb-19 14:40 319 8 gusting 12 6.8
2020-Feb-19 14:35 320 8 gusting 13 6.8
2020-Feb-19 14:30 322 8 gusting 12 6.8
2020-Feb-19 14:25 318 8 gusting 13 6.8
2020-Feb-19 14:20 322 9 gusting 13 6.9
2020-Feb-19 14:15 321 9 gusting 14 6.9
2020-Feb-19 14:10 321 9 gusting 14 6.9
2020-Feb-19 14:05 322 10 gusting 16 6.9
2020-Feb-19 14:00 319 11 gusting 16 6.9
2020-Feb-19 13:55 318 10 gusting 15 6.9
2020-Feb-19 13:50 318 9 gusting 14 6.9
2020-Feb-19 13:45 318 9 gusting 15 6.9
2020-Feb-19 13:40 319 9 gusting 16 6.9
2020-Feb-19 13:35 318 9 gusting 14 6.9
2020-Feb-19 13:30 319 9 gusting 14 6.9
2020-Feb-19 13:25 317 9 gusting 13 6.9
2020-Feb-19 13:20 320 10 gusting 15 6.9
2020-Feb-19 13:15 322 9 gusting 12 6.9
2020-Feb-19 13:10 320 10 gusting 18 7.0
2020-Feb-19 13:05 322 9 gusting 14 7.1
2020-Feb-19 13:00 312 8 gusting 12 7.1
2020-Feb-19 12:55 320 9 gusting 13 7.1
2020-Feb-19 12:50 316 9 gusting 14 7.2
2020-Feb-19 12:45 318 7 gusting 12 7.2
2020-Feb-19 12:40 320 8 gusting 12 7.2
2020-Feb-19 12:35 318 8 gusting 12 7.2
2020-Feb-19 12:30 322 8 gusting 12 7.2
2020-Feb-19 12:25 321 8 gusting 13 7.2
2020-Feb-19 12:20 316 6 gusting 9 7.1
2020-Feb-19 12:15 315 5 gusting 10 7.1
2020-Feb-19 12:10 315 5 gusting 9 7.1
2020-Feb-19 12:05 312 4 gusting 8 7.1
2020-Feb-19 12:00 315 4 gusting 8 7.0
2020-Feb-19 11:55 313 4 gusting 8 6.9
2020-Feb-19 11:50 321 4 gusting 6 6.9
2020-Feb-19 11:45 319 5 gusting 8 7.1
2020-Feb-19 11:40 314 6 gusting 9 7.1
2020-Feb-19 11:35 309 5 gusting 9 7.2
2020-Feb-19 11:30 298 4 gusting 7 7.3
2020-Feb-19 11:25 302 4 gusting 7 7.4
2020-Feb-19 11:20 304 4 gusting 8 7.6
2020-Feb-19 11:15 311 5 gusting 9 7.6
2020-Feb-19 11:10 309 5 gusting 10 7.7
2020-Feb-19 11:05 307 7 gusting 12 7.7
2020-Feb-19 11:00 305 7 gusting 10 7.7
2020-Feb-19 10:55 311 6 gusting 10 7.8
2020-Feb-19 10:50 303 7 gusting 12 7.8
2020-Feb-19 10:45 312 6 gusting 10 7.9
2020-Feb-19 10:40 310 7 gusting 12 8.0
2020-Feb-19 10:35 311 6 gusting 13 8.0
2020-Feb-19 10:30 312 6 gusting 10 8.0
2020-Feb-19 10:25 315 5 gusting 9 8.0
2020-Feb-19 10:20 314 6 gusting 11 7.9
2020-Feb-19 10:15 316 9 gusting 15 8.0
2020-Feb-19 10:10 320 11 gusting 15 8.2
2020-Feb-19 10:05 318 12 gusting 17 8.5
2020-Feb-19 10:00 318 11 gusting 20 8.4
2020-Feb-19 09:55 316 9 gusting 14 8.3
2020-Feb-19 09:50 318 9 gusting 15 8.4
2020-Feb-19 09:45 318 9 gusting 14 8.5
2020-Feb-19 09:40 320 11 gusting 17 8.4
2020-Feb-19 09:35 322 8 gusting 12 8.4
2020-Feb-19 09:30 320 9 gusting 14 8.4
2020-Feb-19 09:25 319 8 gusting 11 8.4
2020-Feb-19 09:20 317 8 gusting 13 8.4
2020-Feb-19 09:15 315 7 gusting 10 8.6
2020-Feb-19 09:10 316 7 gusting 12 8.6
2020-Feb-19 09:05 319 8 gusting 12 8.5
2020-Feb-19 09:00 320 8 gusting 12 8.5
2020-Feb-19 08:55 321 7 gusting 12 8.6
2020-Feb-19 08:50 321 8 gusting 14 8.6
2020-Feb-19 08:45 322 8 gusting 14 8.6
2020-Feb-19 08:40 322 9 gusting 15 8.8
2020-Feb-19 08:35 323 10 gusting 17 9.1
2020-Feb-19 08:30 323 10 gusting 16 9.3
2020-Feb-19 08:25 324 9 gusting 16 9.6
2020-Feb-19 08:20 321 9 gusting 16 9.6
2020-Feb-19 08:15 323 7 gusting 10 9.6
2020-Feb-19 08:10 321 6 gusting 12 9.7
2020-Feb-19 08:05 318 5 gusting 10 9.7
2020-Feb-19 08:00 319 5 gusting 7 9.7
2020-Feb-19 07:55 318 4 gusting 7 9.7
2020-Feb-19 07:50 317 4 gusting 8 9.6
2020-Feb-19 07:45 319 4 gusting 6 9.6
2020-Feb-19 07:40 319 3 gusting 5 9.6
2020-Feb-19 07:35 311 2 gusting 3 9.6
2020-Feb-19 07:30 292 2 gusting 4 9.7
2020-Feb-19 07:25 285 2 gusting 4 9.7
2020-Feb-19 07:20 288 3 gusting 4 9.7
2020-Feb-19 07:15 283 3 gusting 4 9.8
2020-Feb-19 07:10 275 3 gusting 5 9.8
2020-Feb-19 07:05 274 3 gusting 4 9.9
2020-Feb-19 07:00 270 3 gusting 6 10.0
2020-Feb-19 06:55 273 3 gusting 4 10.1
2020-Feb-19 06:50 269 3 gusting 4 10.2
2020-Feb-19 06:45 262 4 gusting 5 10.3
2020-Feb-19 06:40 260 4 gusting 6 10.4
2020-Feb-19 06:35 257 4 gusting 5 10.4
2020-Feb-19 06:30 253 4 gusting 5 10.5
2020-Feb-19 06:25 253 4 gusting 5 10.5
2020-Feb-19 06:20 250 4 gusting 6 10.4
2020-Feb-19 06:15 248 4 gusting 6 10.3
2020-Feb-19 06:10 249 4 gusting 6 10.2
2020-Feb-19 06:05 246 3 gusting 5 9.9
2020-Feb-19 06:00 248 2 gusting 4 9.8
2020-Feb-19 05:55 244 2 gusting 3 9.8
2020-Feb-19 05:50 244 2 gusting 3 9.8
2020-Feb-19 05:45 240 2 gusting 3 9.8
2020-Feb-19 05:40 236 2 gusting 2 9.9
2020-Feb-19 05:35 232 2 gusting 2 10.0
2020-Feb-19 05:30 238 1 gusting 2 10.1
2020-Feb-19 05:25 245 2 gusting 3 10.2
2020-Feb-19 05:20 240 2 gusting 2 10.4
2020-Feb-19 05:15 235 2 gusting 2 10.4
2020-Feb-19 05:10 237 2 gusting 3 10.5
2020-Feb-19 05:05 232 2 gusting 3 10.5
2020-Feb-19 05:00 241 2 gusting 3 10.6
2020-Feb-19 04:55 242 2 gusting 3 10.5
2020-Feb-19 04:50 244 2 gusting 3 10.5
2020-Feb-19 04:45 246 2 gusting 4 10.5
2020-Feb-19 04:40 247 3 gusting 4 10.5
2020-Feb-19 04:35 243 3 gusting 5 10.4
2020-Feb-19 04:30 240 3 gusting 4 10.2
2020-Feb-19 04:25 239 2 gusting 3 10.2
2020-Feb-19 04:20 235 3 gusting 4 10.1
2020-Feb-19 04:15 231 3 gusting 4 10.0
2020-Feb-19 04:10 234 2 gusting 4 10.1
2020-Feb-19 04:05 237 2 gusting 4 10.2
2020-Feb-19 04:00 238 3 gusting 4 10.4
2020-Feb-19 03:55 226 3 gusting 5 10.3
2020-Feb-19 03:50 227 3 gusting 5 10.1
2020-Feb-19 03:45 221 2 gusting 4 10.0
2020-Feb-19 03:40 228 3 gusting 4 10.1
2020-Feb-19 03:35 230 3 gusting 4 10.2
2020-Feb-19 03:30 223 3 gusting 5 10.2
2020-Feb-19 03:25 222 3 gusting 5 10.3
2020-Feb-19 03:20 221 3 gusting 5 10.5
2020-Feb-19 03:15 223 3 gusting 4 10.6
2020-Feb-19 03:10 227 3 gusting 4 10.8
2020-Feb-19 03:05 235 3 gusting 5 10.8
2020-Feb-19 03:00 238 4 gusting 5 10.7
2020-Feb-19 02:55 238 3 gusting 5 10.8
2020-Feb-19 02:50 231 3 gusting 5 10.8
2020-Feb-19 02:45 235 3 gusting 5 10.9
2020-Feb-19 02:40 234 3 gusting 5 11.2
2020-Feb-19 02:35 226 4 gusting 6 11.7
2020-Feb-19 02:30 221 4 gusting 6 11.9
2020-Feb-19 02:25 212 3 gusting 5 11.9
2020-Feb-19 02:20 206 4 gusting 7 11.9
2020-Feb-19 02:15 209 3 gusting 6 11.8
2020-Feb-19 02:10 207 3 gusting 5 11.8
2020-Feb-19 02:05 200 4 gusting 6 11.7
2020-Feb-19 02:00 200 3 gusting 6 11.6
2020-Feb-19 01:55 192 3 gusting 5 11.5
2020-Feb-19 01:50 188 2 gusting 5 11.3
2020-Feb-19 01:45 187 1 gusting 3 10.6
2020-Feb-19 01:40 166 1 gusting 2 10.4
2020-Feb-19 01:35 159 2 gusting 2 10.5
2020-Feb-19 01:30 158 2 gusting 3 11.2
2020-Feb-19 01:25 187 2 gusting 4 11.8
2020-Feb-19 01:20 194 2 gusting 4 11.8
2020-Feb-19 01:15 194 2 gusting 4 11.9
2020-Feb-19 01:10 191 3 gusting 4 12.0
2020-Feb-19 01:05 197 3 gusting 4 12.1
2020-Feb-19 01:00 201 3 gusting 5 12.1
2020-Feb-19 00:55 203 3 gusting 5 12.0
2020-Feb-19 00:50 205 3 gusting 5 12.0
2020-Feb-19 00:45 203 3 gusting 6 12.0
2020-Feb-19 00:40 196 3 gusting 4 11.6
2020-Feb-19 00:35 182 2 gusting 4 11.6
2020-Feb-19 00:30 194 3 gusting 4 11.5
2020-Feb-19 00:25 177 3 gusting 5 10.6
2020-Feb-19 00:20 177 4 gusting 5 12.1
2020-Feb-19 00:15 197 4 gusting 7 12.1
2020-Feb-19 00:10 199 5 gusting 8 10.9
2020-Feb-19 00:05 167 4 gusting 5 9.0
2020-Feb-19 00:00 152 5 gusting 5 8.5
2020-Feb-18 23:55 151 5 gusting 6 8.6
2020-Feb-18 23:50 150 5 gusting 7 8.7
2020-Feb-18 23:45 153 4 gusting 5 8.9
2020-Feb-18 23:40 156 4 gusting 5 8.9
2020-Feb-18 23:35 157 3 gusting 4 8.8
2020-Feb-18 23:30 155 4 gusting 5 8.7
2020-Feb-18 23:25 152 4 gusting 6 8.7
2020-Feb-18 23:20 151 4 gusting 5 8.8
2020-Feb-18 23:15 156 5 gusting 6 8.7
2020-Feb-18 23:10 153 6 gusting 7 8.5
2020-Feb-18 23:05 154 6 gusting 8 8.3
2020-Feb-18 23:00 149 6 gusting 8 8.2
2020-Feb-18 22:55 149 5 gusting 7 8.2
2020-Feb-18 22:50 149 5 gusting 7 8.4
2020-Feb-18 22:45 151 5 gusting 6 8.4
2020-Feb-18 22:40 154 5 gusting 6 8.4
2020-Feb-18 22:35 154 5 gusting 6 8.3
2020-Feb-18 22:30 154 6 gusting 7 8.3
2020-Feb-18 22:25 155 6 gusting 7 8.3
2020-Feb-18 22:20 149 5 gusting 7 8.4
2020-Feb-18 22:15 149 5 gusting 7 8.4
2020-Feb-18 22:10 151 6 gusting 7 8.6
2020-Feb-18 22:05 156 6 gusting 7 8.6
2020-Feb-18 22:00 150 5 gusting 6 8.8
2020-Feb-18 21:55 156 6 gusting 8 8.7
2020-Feb-18 21:50 157 7 gusting 10 8.6
2020-Feb-18 21:45 152 9 gusting 11 8.6
2020-Feb-18 21:40 151 9 gusting 11 8.5
2020-Feb-18 21:35 149 10 gusting 12 8.4
2020-Feb-18 21:30 144 10 gusting 11 8.5
2020-Feb-18 21:25 144 9 gusting 12 8.6
2020-Feb-18 21:20 146 8 gusting 10 8.6
2020-Feb-18 21:15 147 8 gusting 10 8.6
2020-Feb-18 21:10 146 8 gusting 10 8.5
2020-Feb-18 21:05 143 8 gusting 10 8.6
2020-Feb-18 21:00 145 8 gusting 10 8.7
2020-Feb-18 20:55 148 8 gusting 11 8.8
2020-Feb-18 20:50 145 8 gusting 10 8.8
2020-Feb-18 20:45 153 7 gusting 11 8.9
2020-Feb-18 20:40 145 9 gusting 12 8.8
2020-Feb-18 20:35 147 11 gusting 13 8.9
2020-Feb-18 20:30 149 9 gusting 12 9.1
2020-Feb-18 20:25 146 9 gusting 11 9.1
2020-Feb-18 20:20 148 9 gusting 12 9.1
2020-Feb-18 20:15 144 10 gusting 14 9.2
2020-Feb-18 20:10 143 10 gusting 12 9.3
2020-Feb-18 20:05 148 8 gusting 11 9.4
2020-Feb-18 20:00 148 8 gusting 12 9.4
2020-Feb-18 19:55 145 8 gusting 11 9.4
2020-Feb-18 19:50 148 8 gusting 11 9.6
2020-Feb-18 19:45 145 10 gusting 13 9.7
2020-Feb-18 19:40 148 7 gusting 11 9.5
2020-Feb-18 19:35 145 8 gusting 11 9.6
2020-Feb-18 19:30 142 9 gusting 13 9.7
2020-Feb-18 19:25 143 9 gusting 11 9.7
2020-Feb-18 19:20 142 9 gusting 11 9.9
2020-Feb-18 19:15 143 7 gusting 11 9.6
2020-Feb-18 19:10 139 8 gusting 11 9.5
2020-Feb-18 19:05 136 8 gusting 11 9.6
2020-Feb-18 19:00 138 8 gusting 10 9.6
2020-Feb-18 18:55 136 8 gusting 11 9.5
2020-Feb-18 18:50 131 8 gusting 10 9.5
2020-Feb-18 18:45 131 8 gusting 11 9.6
2020-Feb-18 18:40 127 8 gusting 10 9.4
2020-Feb-18 18:35 123 7 gusting 9 9.5
2020-Feb-18 18:30 128 8 gusting 10 9.4
2020-Feb-18 18:25 120 8 gusting 9 9.3
2020-Feb-18 18:20 120 8 gusting 10 9.4
2020-Feb-18 18:15 130 9 gusting 10 9.9
2020-Feb-18 18:10 132 8 gusting 10 9.9
2020-Feb-18 18:05 126 8 gusting 10 9.7
2020-Feb-18 18:00 126 7 gusting 9 9.7
2020-Feb-18 17:55 118 6 gusting 8 9.8
2020-Feb-18 17:50 119 7 gusting 8 9.7
2020-Feb-18 17:45 118 7 gusting 8 9.8
2020-Feb-18 17:40 122 8 gusting 9 9.7
2020-Feb-18 17:35 118 6 gusting 8 9.7
2020-Feb-18 17:30 102 5 gusting 6 9.4
2020-Feb-18 17:25 101 6 gusting 7 9.4
2020-Feb-18 17:20 104 6 gusting 7 9.5
2020-Feb-18 17:15 102 6 gusting 7 9.4
2020-Feb-18 17:10 096 5 gusting 6 9.6
2020-Feb-18 17:05 098 6 gusting 6 9.6
2020-Feb-18 17:00 097 5 gusting 6 9.6
2020-Feb-18 16:55 101 5 gusting 6 9.6
2020-Feb-18 16:50 099 5 gusting 6 9.6
2020-Feb-18 16:45 100 5 gusting 6 9.7
2020-Feb-18 16:40 106 6 gusting 7 9.8
2020-Feb-18 16:35 107 4 gusting 5 9.8
2020-Feb-18 16:30 102 4 gusting 4 9.8
2020-Feb-18 16:25 105 5 gusting 6 9.5
2020-Feb-18 16:20 104 5 gusting 6 9.5
2020-Feb-18 16:15 105 5 gusting 6 9.8
2020-Feb-18 16:10 113 5 gusting 5 9.9
2020-Feb-18 16:05 124 5 gusting 6 10.1
2020-Feb-18 16:00 127 5 gusting 5 10.2
2020-Feb-18 15:55 126 5 gusting 5 10.3
2020-Feb-18 15:50 125 4 gusting 5 10.5
2020-Feb-18 15:45 128 4 gusting 6 10.7
2020-Feb-18 15:40 139 4 gusting 5 11.3
2020-Feb-18 15:35 163 4 gusting 6 11.2
2020-Feb-18 15:30 172 3 gusting 6 10.9
2020-Feb-18 15:25 166 1 gusting 5 10.6
2020-Feb-18 15:20 152 2 gusting 3 10.2
2020-Feb-18 15:15 166 1 gusting 3 10.1
2020-Feb-18 15:10 161 1 gusting 3 9.7
2020-Feb-18 15:05 138 1 gusting 2 9.4
2020-Feb-18 15:00 153 1 gusting 2 9.3
2020-Feb-18 14:55 139 2 gusting 2 9.2
2020-Feb-18 14:50 123 1 gusting 2 9.3
2020-Feb-18 14:45 142 1 gusting 2 9.3
2020-Feb-18 14:40 129 1 gusting 2 9.2
2020-Feb-18 14:35 140 1 gusting 3 9.3
2020-Feb-18 14:30 147 1 gusting 2 9.5
2020-Feb-18 14:25 215 0 gusting 2 8.7
2020-Feb-18 14:20 092 1 gusting 3 8.1
2020-Feb-18 14:15 115 2 gusting 3 8.0
2020-Feb-18 14:10 106 2 gusting 3 7.8
2020-Feb-18 14:05 084 3 gusting 4 7.6
2020-Feb-18 14:00 092 4 gusting 4 7.6
2020-Feb-18 13:55 096 3 gusting 4 7.5
2020-Feb-18 13:50 087 4 gusting 4 7.5
2020-Feb-18 13:45 086 4 gusting 6 7.3
2020-Feb-18 13:40 086 5 gusting 6 7.2
2020-Feb-18 13:35 081 5 gusting 7 7.1
2020-Feb-18 13:30 077 5 gusting 6 7.1
2020-Feb-18 13:25 074 4 gusting 5 7.1
2020-Feb-18 13:20 065 3 gusting 5 7.2
2020-Feb-18 13:15 069 3 gusting 4 7.1
2020-Feb-18 13:10 062 3 gusting 3 7.1
2020-Feb-18 13:05 047 3 gusting 4 7.1
2020-Feb-18 13:00 051 4 gusting 5 7.1
2020-Feb-18 12:55 064 5 gusting 6 7.1
2020-Feb-18 12:50 072 4 gusting 6 7.0
2020-Feb-18 12:45 067 3 gusting 5 7.0
2020-Feb-18 12:40 053 3 gusting 3 6.9
2020-Feb-18 12:35 031 2 gusting 3 6.7
2020-Feb-18 12:30 020 2 gusting 3 6.8
2020-Feb-18 12:25 022 2 gusting 3 6.7
2020-Feb-18 12:20 036 2 gusting 3 6.8
2020-Feb-18 12:15 047 2 gusting 4 7.0
2020-Feb-18 12:10 061 3 gusting 5 6.7
2020-Feb-18 12:05 039 3 gusting 4 6.6
2020-Feb-18 12:00 005 1 gusting 2 6.5
2020-Feb-18 11:55 001 1 gusting 2 6.5
2020-Feb-18 11:50 003 1 gusting 1 6.5
2020-Feb-18 11:45 354 1 gusting 2 6.5
2020-Feb-18 11:40 013 1 gusting 2 6.6
2020-Feb-18 11:35 037 1 gusting 2 6.6
2020-Feb-18 11:30 051 2 gusting 3 6.6
2020-Feb-18 11:25 054 2 gusting 3 6.7
2020-Feb-18 11:20 064 3 gusting 4 6.7
2020-Feb-18 11:15 067 3 gusting 4 6.7
2020-Feb-18 11:10 068 4 gusting 6 6.7
2020-Feb-18 11:05 070 5 gusting 6 6.7
2020-Feb-18 11:00 073 6 gusting 6 6.7
2020-Feb-18 10:55 071 6 gusting 7 6.7
2020-Feb-18 10:50 072 7 gusting 8 6.7
2020-Feb-18 10:45 065 6 gusting 7 6.7
2020-Feb-18 10:40 062 6 gusting 8 6.6
2020-Feb-18 10:35 065 7 gusting 8 6.6
2020-Feb-18 10:30 063 7 gusting 8 6.6
2020-Feb-18 10:25 061 7 gusting 8 6.6
2020-Feb-18 10:20 062 7 gusting 8 6.6
2020-Feb-18 10:15 061 8 gusting 9 6.6
2020-Feb-18 10:10 060 7 gusting 9 6.6
2020-Feb-18 10:05 057 8 gusting 9 6.6
2020-Feb-18 10:00 054 7 gusting 8 6.7
2020-Feb-18 09:55 057 8 gusting 9 6.7
2020-Feb-18 09:50 061 8 gusting 9 6.7
2020-Feb-18 09:45 069 8 gusting 10 6.7
2020-Feb-18 09:40 073 8 gusting 10 6.7
2020-Feb-18 09:35 072 8 gusting 9 6.7
2020-Feb-18 09:30 072 8 gusting 9 6.7
2020-Feb-18 09:25 071 8 gusting 9 6.7
2020-Feb-18 09:20 067 8 gusting 9 6.6
2020-Feb-18 09:15 068 9 gusting 10 6.6
2020-Feb-18 09:10 069 9 gusting 10 6.5
2020-Feb-18 09:05 069 9 gusting 10 6.5
2020-Feb-18 09:00 068 10 gusting 11 6.5
2020-Feb-18 08:55 068 9 gusting 11 6.5
2020-Feb-18 08:50 065 9 gusting 10 6.5
2020-Feb-18 08:45 065 9 gusting 10 6.5
2020-Feb-18 08:40 063 8 gusting 10 6.6
2020-Feb-18 08:35 063 8 gusting 9 6.5
2020-Feb-18 08:30 062 7 gusting 9 6.6
2020-Feb-18 08:25 061 7 gusting 8 6.6
2020-Feb-18 08:20 065 8 gusting 9 6.6
2020-Feb-18 08:15 067 7 gusting 9 6.6
2020-Feb-18 08:10 066 7 gusting 8 6.6
2020-Feb-18 08:05 068 7 gusting 8 6.5
2020-Feb-18 08:00 073 8 gusting 10 6.6
2020-Feb-18 07:55 077 8 gusting 10 6.5
2020-Feb-18 07:50 076 8 gusting 9 6.5
2020-Feb-18 07:45 070 8 gusting 9 6.5
2020-Feb-18 07:40 067 8 gusting 10 6.5
2020-Feb-18 07:35 065 8 gusting 9 6.6
2020-Feb-18 07:30 064 8 gusting 9 6.5
2020-Feb-18 07:25 064 8 gusting 10 6.5
2020-Feb-18 07:20 067 9 gusting 10 6.5
2020-Feb-18 07:15 071 9 gusting 11 6.5
2020-Feb-18 07:10 074 10 gusting 11 6.4
2020-Feb-18 07:05 071 10 gusting 12 6.4
2020-Feb-18 07:00 070 10 gusting 12 6.4
2020-Feb-18 06:55 068 10 gusting 11 6.4
2020-Feb-18 06:50 066 9 gusting 11 6.3
2020-Feb-18 06:45 065 9 gusting 10 6.3
2020-Feb-18 06:40 063 8 gusting 10 6.3
2020-Feb-18 06:35 062 8 gusting 9 6.3
2020-Feb-18 06:30 063 9 gusting 10 6.3
2020-Feb-18 06:25 062 8 gusting 10 6.3
2020-Feb-18 06:20 063 8 gusting 9 6.3
2020-Feb-18 06:15 064 8 gusting 9 6.3
2020-Feb-18 06:10 062 8 gusting 9 6.3
2020-Feb-18 06:05 064 7 gusting 9 6.3
2020-Feb-18 06:00 064 7 gusting 8 6.2
2020-Feb-18 05:55 063 6 gusting 7 6.1
2020-Feb-18 05:50 063 6 gusting 6 6.0
2020-Feb-18 05:45 060 5 gusting 6 6.0
2020-Feb-18 05:40 060 5 gusting 6 5.9
2020-Feb-18 05:35 056 5 gusting 5 5.8
2020-Feb-18 05:30 052 5 gusting 6 5.8
2020-Feb-18 05:25 051 5 gusting 6 5.8
2020-Feb-18 05:20 048 5 gusting 6 5.8
2020-Feb-18 05:15 045 5 gusting 6 5.8
2020-Feb-18 05:10 045 5 gusting 5 5.8
2020-Feb-18 05:05 043 5 gusting 5 5.8
2020-Feb-18 05:00 042 4 gusting 5 5.8
2020-Feb-18 04:55 041 5 gusting 5 5.7
2020-Feb-18 04:50 051 5 gusting 6 5.7
2020-Feb-18 04:45 060 5 gusting 6 5.7
2020-Feb-18 04:40 061 5 gusting 6 5.7
2020-Feb-18 04:35 059 5 gusting 6 5.6
2020-Feb-18 04:30 054 5 gusting 6 5.6
2020-Feb-18 04:25 051 5 gusting 6 5.6
2020-Feb-18 04:20 047 5 gusting 6 5.6
2020-Feb-18 04:15 040 4 gusting 5 5.6
2020-Feb-18 04:10 043 4 gusting 5 5.6
2020-Feb-18 04:05 040 4 gusting 5 5.7
2020-Feb-18 04:00 039 4 gusting 5 5.6
2020-Feb-18 03:55 037 4 gusting 5 5.6
2020-Feb-18 03:50 042 3 gusting 4 5.7
2020-Feb-18 03:45 044 3 gusting 4 5.7
2020-Feb-18 03:40 053 3 gusting 4 5.7
2020-Feb-18 03:35 055 3 gusting 4 5.7
2020-Feb-18 03:30 055 4 gusting 5 5.7
2020-Feb-18 03:25 061 4 gusting 5 5.7
2020-Feb-18 03:20 063 5 gusting 6 5.7
2020-Feb-18 03:15 063 5 gusting 5 5.7
2020-Feb-18 03:10 067 5 gusting 6 5.7
2020-Feb-18 03:05 071 5 gusting 6 5.7
2020-Feb-18 03:00 070 5 gusting 6 5.7
2020-Feb-18 02:55 068 5 gusting 6 5.7
2020-Feb-18 02:50 060 5 gusting 5 5.7
2020-Feb-18 02:45 056 5 gusting 6 5.7
2020-Feb-18 02:40 050 5 gusting 6 5.7
2020-Feb-18 02:35 050 5 gusting 5 5.7
2020-Feb-18 02:30 051 4 gusting 5 5.8
2020-Feb-18 02:25 055 4 gusting 5 5.8
2020-Feb-18 02:20 059 4 gusting 5 5.8
2020-Feb-18 02:15 061 4 gusting 5 5.8
2020-Feb-18 02:10 064 4 gusting 5 5.8
2020-Feb-18 02:05 072 5 gusting 6 5.8
2020-Feb-18 02:00 073 6 gusting 7 5.8
2020-Feb-18 01:55 071 5 gusting 6 5.8
2020-Feb-18 01:50 068 5 gusting 6 5.8
2020-Feb-18 01:45 067 6 gusting 6 5.8
2020-Feb-18 01:40 060 5 gusting 6 5.7
2020-Feb-18 01:35 058 6 gusting 7 5.7
2020-Feb-18 01:30 051 5 gusting 6 5.7
2020-Feb-18 01:25 045 5 gusting 5 5.8
2020-Feb-18 01:20 040 4 gusting 5 5.8
2020-Feb-18 01:15 043 4 gusting 5 5.7
2020-Feb-18 01:10 047 4 gusting 5 5.7
2020-Feb-18 01:05 044 4 gusting 4 5.8
2020-Feb-18 01:00 043 4 gusting 5 5.7
2020-Feb-18 00:55 046 4 gusting 5 5.8
2020-Feb-18 00:50 045 4 gusting 5 5.7
2020-Feb-18 00:45 049 4 gusting 5 5.7
2020-Feb-18 00:40 044 4 gusting 5 5.7
2020-Feb-18 00:35 034 4 gusting 4 5.6
2020-Feb-18 00:30 029 3 gusting 4 5.7
2020-Feb-18 00:25 030 4 gusting 5 5.7
2020-Feb-18 00:20 036 4 gusting 5 5.8
2020-Feb-18 00:15 037 4 gusting 5 5.7
2020-Feb-18 00:10 035 4 gusting 5 5.7
2020-Feb-18 00:05 035 3 gusting 4 5.7
2020-Feb-18 00:00 035 3 gusting 4 5.8